Location: ?????????
(38.0736°N, 23.2119°E)
Time: 03:44:16
(UTC+00:00)

NOSS 3-1 (A) - Pass Details

Date: 18 April 2024
Orbit: 660 x 1550 km, 63.4° (Epoch: 15 May)

Event Time Altitude Azimuth Distance (km) Brightness Sun altitude
Rises 17:53:36 0° 206° (SSW) 2,988 6.1 -9.6°
Reaches altitude 10° 17:55:47 10° 205° (SSW) 2,109 5.3 -10.0°
Maximum altitude 18:00:29 76° 121° (ESE) 760 2.8 -10.9°
Drops below altitude 10° 18:05:58 10° 36° (NE) 2,451 5.5 -11.9°
Sets 18:08:40 0° 35° (NE) 3,517 6.3 -12.3°
